VIR71 EGKK-EGPF

Flight info

Callsign VIR71
Flight time 1h 2m
Altitude 36000
Route LAM L10 BPK UN601 RIBEL DCT ASLIB
Aircraft B744/H-SDE3FGHIM1M2RWXY/LB1

Departure

Time 2026-05-07 17:42
Airport London Gatwick Airport (EGKK)

Arrival

Time 2026-05-07 18:44
Airport Glasgow Airport (EGPF)
Time Latitude Longitude Altitude Speed Heading
2026-05-07 17:16 51.15815 -0.17731 221 ft 0 kts 347°
2026-05-07 17:26 51.15807 -0.17728 221 ft 2 kts 347°
2026-05-07 17:26 51.15791 -0.17723 221 ft 2 kts 347°
2026-05-07 17:27 51.15775 -0.17717 220 ft 2 kts 347°
2026-05-07 17:27 51.15761 -0.17712 221 ft 1 kts 347°
2026-05-07 17:27 51.15759 -0.17711 221 ft 0 kts 347°
2026-05-07 17:27 51.15751 -0.17706 222 ft 2 kts 321°
2026-05-07 17:28 51.15742 -0.17689 224 ft 2 kts 296°
2026-05-07 17:28 51.15740 -0.17668 222 ft 2 kts 257°
2026-05-07 17:28 51.15740 -0.17665 222 ft 0 kts 257°
2026-05-07 17:31 51.15740 -0.17666 222 ft 0 kts 257°
2026-05-07 17:32 51.15738 -0.17681 224 ft 7 kts 257°
2026-05-07 17:32 51.15722 -0.17797 216 ft 11 kts 257°
2026-05-07 17:32 51.15705 -0.17916 221 ft 11 kts 257°
2026-05-07 17:32 51.15693 -0.17999 220 ft 14 kts 257°
2026-05-07 17:33 51.15654 -0.18270 219 ft 20 kts 257°
2026-05-07 17:33 51.15626 -0.18480 219 ft 19 kts 258°
2026-05-07 17:33 51.15599 -0.18684 216 ft 19 kts 258°
2026-05-07 17:33 51.15573 -0.18830 218 ft 3 kts 218°
2026-05-07 17:34 51.15558 -0.18831 219 ft 4 kts 165°
2026-05-07 17:34 51.15506 -0.18811 215 ft 10 kts 167°
2026-05-07 17:34 51.15411 -0.18778 221 ft 17 kts 168°
2026-05-07 17:34 51.15294 -0.18738 217 ft 14 kts 167°
2026-05-07 17:35 51.15222 -0.18712 218 ft 0 kts 167°
2026-05-07 17:35 51.15221 -0.18712 218 ft 0 kts 167°
2026-05-07 17:36 51.15195 -0.18702 220 ft 10 kts 167°
2026-05-07 17:36 51.15129 -0.18754 221 ft 14 kts 252°
2026-05-07 17:36 51.15103 -0.18925 219 ft 16 kts 257°
2026-05-07 17:37 51.15077 -0.19103 216 ft 19 kts 257°
2026-05-07 17:37 51.15045 -0.19319 220 ft 20 kts 257°
2026-05-07 17:37 51.15020 -0.19513 216 ft 16 kts 259°
2026-05-07 17:37 51.14998 -0.19686 217 ft 16 kts 258°
2026-05-07 17:38 51.14975 -0.19854 219 ft 16 kts 257°
2026-05-07 17:38 51.14945 -0.20061 215 ft 23 kts 257°
2026-05-07 17:38 51.14909 -0.20327 216 ft 25 kts 257°
2026-05-07 17:38 51.14872 -0.20591 221 ft 24 kts 257°
2026-05-07 17:39 51.14838 -0.20844 218 ft 23 kts 258°
2026-05-07 17:39 51.14806 -0.21083 219 ft 21 kts 258°
2026-05-07 17:39 51.14775 -0.21240 214 ft 18 kts 258°
2026-05-07 17:39 51.14759 -0.21353 217 ft 11 kts 249°
2026-05-07 17:40 51.14717 -0.21398 218 ft 6 kts 179°
2026-05-07 17:40 51.14681 -0.21380 218 ft 5 kts 144°
2026-05-07 17:40 51.14653 -0.21350 223 ft 5 kts 147°
2026-05-07 17:40 51.14612 -0.21317 221 ft 13 kts 157°
2026-05-07 17:41 51.14529 -0.21233 221 ft 13 kts 108°
2026-05-07 17:41 51.14530 -0.21100 216 ft 11 kts 75°
2026-05-07 17:41 51.14584 -0.20707 223 ft 80 kts 77°
2026-05-07 17:41 51.14755 -0.19369 221 ft 162 kts 78°
2026-05-07 17:42 51.14843 -0.17388 793 ft 190 kts 91°
2026-05-07 17:42 51.14464 -0.15478 1221 ft 192 kts 124°
2026-05-07 17:42 51.13689 -0.13648 1230 ft 204 kts 123°
2026-05-07 17:42 51.13056 -0.11647 1450 ft 200 kts 91°
2026-05-07 17:43 51.13191 -0.09475 1707 ft 200 kts 53°
2026-05-07 17:43 51.13870 -0.07514 1860 ft 210 kts 49°
2026-05-07 17:43 51.14700 -0.05517 1937 ft 218 kts 45°
2026-05-07 17:43 51.15629 -0.03589 2119 ft 220 kts 49°
2026-05-07 17:44 51.16328 -0.01516 2296 ft 219 kts 81°
2026-05-07 17:44 51.15869 0.00857 2159 ft 222 kts 111°
2026-05-07 17:44 51.15142 0.03053 2231 ft 225 kts 105°
2026-05-07 17:44 51.14542 0.05325 2425 ft 225 kts 97°
2026-05-07 17:45 51.14028 0.07687 2447 ft 223 kts 98°
2026-05-07 17:45 51.13689 0.10105 2429 ft 232 kts 89°
2026-05-07 17:45 51.13540 0.11806 2487 ft 235 kts 90°
2026-05-07 17:45 51.13167 0.15235 2419 ft 243 kts 87°
2026-05-07 17:46 51.13131 0.17037 2359 ft 249 kts 88°
2026-05-07 17:46 51.13132 0.19748 2415 ft 242 kts 79°
2026-05-07 17:46 51.12976 0.22904 1132 ft 264 kts 97°
2026-05-07 17:46 51.12719 0.26102 1150 ft 319 kts 97°
2026-05-07 17:47 51.12410 0.29895 1202 ft 364 kts 97°
2026-05-07 17:47 51.12086 0.33853 1240 ft 361 kts 97°
2026-05-07 17:47 51.11753 0.37916 1270 ft 372 kts 97°
2026-05-07 17:47 51.11427 0.41885 1280 ft 354 kts 97°
2026-05-07 17:48 51.11107 0.45782 1289 ft 361 kts 97°
2026-05-07 17:48 51.10788 0.49663 3090 ft 332 kts 97°
2026-05-07 17:48 51.10495 0.53218 5146 ft 327 kts 97°
2026-05-07 17:48 51.10291 0.56770 5018 ft 324 kts 89°
2026-05-07 17:49 51.10643 0.60212 4990 ft 310 kts 68°
2026-05-07 17:49 51.11788 0.63003 4993 ft 297 kts 43°
2026-05-07 17:49 51.13527 0.64668 4996 ft 284 kts 15°
2026-05-07 17:49 51.15440 0.64903 5001 ft 272 kts 352°
2026-05-07 17:50 51.17259 0.64318 4988 ft 263 kts 345°
2026-05-07 17:50 51.18982 0.63567 4990 ft 259 kts 343°
2026-05-07 17:50 51.20692 0.62708 4992 ft 256 kts 336°
2026-05-07 17:50 51.22284 0.61380 4994 ft 255 kts 328°
2026-05-07 17:51 51.23759 0.59896 4991 ft 253 kts 327°
2026-05-07 17:51 51.25232 0.58359 4990 ft 253 kts 326°
2026-05-07 17:51 51.26707 0.56808 5004 ft 254 kts 326°
2026-05-07 17:51 51.28178 0.55257 5000 ft 253 kts 326°
2026-05-07 17:52 51.29645 0.53709 4996 ft 252 kts 326°
2026-05-07 17:52 51.31107 0.52165 4993 ft 252 kts 326°
2026-05-07 17:52 51.32566 0.50624 5001 ft 250 kts 326°
2026-05-07 17:52 51.34028 0.49079 5521 ft 264 kts 326°
2026-05-07 17:53 51.35621 0.47392 6194 ft 285 kts 326°
2026-05-07 17:53 51.37312 0.45599 6861 ft 293 kts 326°
2026-05-07 17:53 51.39035 0.43772 7508 ft 300 kts 326°
2026-05-07 17:53 51.40778 0.41921 8160 ft 303 kts 326°
2026-05-07 17:54 51.42545 0.40043 8817 ft 305 kts 326°
2026-05-07 17:54 51.44329 0.38147 9576 ft 310 kts 326°
2026-05-07 17:54 51.46131 0.36229 10339 ft 314 kts 326°
2026-05-07 17:54 51.47956 0.34285 11091 ft 316 kts 326°
2026-05-07 17:55 51.49808 0.32311 11828 ft 324 kts 326°
2026-05-07 17:55 51.51736 0.30254 12018 ft 327 kts 326°
2026-05-07 17:55 51.53641 0.28220 12499 ft 332 kts 326°
2026-05-07 17:55 51.55558 0.26180 12969 ft 333 kts 327°
2026-05-07 17:56 51.57636 0.24069 12919 ft 373 kts 328°
2026-05-07 17:56 51.59927 0.21788 12920 ft 395 kts 328°
2026-05-07 17:56 51.62269 0.19403 13383 ft 403 kts 327°
2026-05-07 17:56 51.64652 0.16941 14336 ft 412 kts 327°
2026-05-07 17:57 51.67067 0.14465 15291 ft 419 kts 327°
2026-05-07 17:57 51.68729 0.12771 15914 ft 423 kts 327°
2026-05-07 17:57 51.72053 0.09371 17131 ft 431 kts 327°
2026-05-07 17:57 51.74602 0.06746 17999 ft 437 kts 327°
2026-05-07 17:58 51.77157 0.04114 18702 ft 438 kts 327°
2026-05-07 17:58 51.79735 0.01461 18998 ft 438 kts 327°
2026-05-07 17:58 51.82311 -0.01194 18990 ft 438 kts 327°
2026-05-07 17:58 51.84881 -0.03848 18993 ft 439 kts 327°
2026-05-07 17:59 51.87453 -0.06511 18990 ft 439 kts 327°
2026-05-07 17:59 51.90029 -0.09179 18992 ft 439 kts 327°
2026-05-07 17:59 51.92599 -0.11844 18993 ft 439 kts 327°
2026-05-07 17:59 51.95172 -0.14516 18995 ft 440 kts 327°
2026-05-07 18:00 51.97761 -0.17209 19391 ft 444 kts 327°
2026-05-07 18:00 52.00380 -0.19938 20175 ft 451 kts 327°
2026-05-07 18:00 52.03034 -0.22705 20937 ft 456 kts 327°
2026-05-07 18:00 52.05720 -0.25511 21674 ft 462 kts 327°
2026-05-07 18:01 52.08436 -0.28352 22399 ft 467 kts 327°
2026-05-07 18:01 52.11181 -0.31228 23100 ft 472 kts 327°
2026-05-07 18:01 52.13956 -0.34139 23773 ft 477 kts 327°
2026-05-07 18:01 52.16759 -0.37084 24415 ft 481 kts 327°
2026-05-07 18:02 52.21469 -0.42044 25414 ft 489 kts 327°
2026-05-07 18:02 52.24340 -0.45073 25977 ft 493 kts 327°
2026-05-07 18:02 52.27233 -0.48131 26514 ft 497 kts 327°
2026-05-07 18:03 52.30148 -0.51216 27025 ft 501 kts 327°
2026-05-07 18:03 52.33083 -0.54327 27512 ft 505 kts 327°
2026-05-07 18:03 52.36045 -0.57472 27981 ft 509 kts 327°
2026-05-07 18:03 52.39019 -0.60635 28424 ft 512 kts 327°
2026-05-07 18:04 52.42001 -0.63812 29099 ft 510 kts 327°
2026-05-07 18:04 52.44970 -0.66979 29763 ft 508 kts 327°
2026-05-07 18:04 52.47922 -0.70135 30399 ft 506 kts 327°
2026-05-07 18:04 52.50868 -0.73289 31018 ft 505 kts 327°
2026-05-07 18:05 52.53806 -0.76439 31620 ft 504 kts 327°
2026-05-07 18:05 52.56736 -0.79586 32191 ft 503 kts 327°
2026-05-07 18:05 52.59660 -0.82731 32752 ft 502 kts 326°
2026-05-07 18:05 52.62577 -0.85875 33292 ft 501 kts 326°
2026-05-07 18:06 52.65487 -0.89015 33812 ft 500 kts 326°
2026-05-07 18:06 52.68394 -0.92157 34326 ft 499 kts 326°
2026-05-07 18:06 52.71295 -0.95298 34813 ft 498 kts 326°
2026-05-07 18:06 52.74191 -0.98438 35302 ft 498 kts 326°
2026-05-07 18:07 52.77078 -1.01575 35761 ft 496 kts 326°
2026-05-07 18:07 52.79936 -1.04684 36006 ft 488 kts 326°
2026-05-07 18:07 52.82762 -1.07763 35995 ft 485 kts 326°
2026-05-07 18:08 52.88379 -1.13899 35995 ft 482 kts 326°
2026-05-07 18:08 52.93935 -1.19987 35994 ft 482 kts 326°
2026-05-07 18:09 52.99524 -1.26131 35992 ft 483 kts 326°
2026-05-07 18:09 53.05130 -1.32311 35999 ft 483 kts 326°
2026-05-07 18:10 53.10749 -1.38527 35998 ft 483 kts 326°
2026-05-07 18:10 53.16341 -1.44732 35995 ft 483 kts 326°
2026-05-07 18:11 53.21943 -1.50969 35999 ft 485 kts 326°
2026-05-07 18:11 53.27511 -1.57187 35997 ft 485 kts 326°
2026-05-07 18:12 53.33124 -1.63476 36002 ft 485 kts 326°
2026-05-07 18:12 53.38730 -1.69776 35998 ft 486 kts 326°
2026-05-07 18:13 53.44343 -1.76106 36000 ft 486 kts 326°
2026-05-07 18:13 53.49962 -1.82462 36003 ft 487 kts 326°
2026-05-07 18:14 53.55575 -1.88832 36004 ft 487 kts 326°
2026-05-07 18:14 53.61181 -1.95215 36002 ft 486 kts 326°
2026-05-07 18:15 53.66783 -2.01615 36007 ft 487 kts 326°
2026-05-07 18:15 53.72386 -2.08037 36005 ft 485 kts 326°
2026-05-07 18:16 53.78391 -2.13258 36012 ft 487 kts 339°
2026-05-07 18:16 53.84738 -2.17259 36008 ft 486 kts 337°
2026-05-07 18:17 53.90964 -2.21708 36013 ft 487 kts 338°
2026-05-07 18:17 53.97244 -2.25922 36009 ft 485 kts 338°
2026-05-07 18:18 54.03409 -2.30575 36011 ft 485 kts 331°
2026-05-07 18:18 54.09301 -2.36182 36010 ft 485 kts 330°
2026-05-07 18:19 54.15231 -2.41705 36012 ft 488 kts 331°
2026-05-07 18:19 54.21161 -2.47302 36008 ft 487 kts 330°
2026-05-07 18:20 54.27097 -2.52908 36005 ft 488 kts 331°
2026-05-07 18:20 54.33010 -2.58508 36005 ft 483 kts 330°
2026-05-07 18:21 54.38883 -2.64098 36003 ft 483 kts 330°
2026-05-07 18:21 54.44771 -2.69711 35746 ft 485 kts 330°
2026-05-07 18:21 54.47731 -2.72544 35043 ft 488 kts 330°
2026-05-07 18:22 54.50691 -2.75382 34345 ft 487 kts 330°
2026-05-07 18:22 54.52653 -2.77263 33880 ft 487 kts 330°
2026-05-07 18:22 54.56616 -2.81070 32905 ft 488 kts 330°
2026-05-07 18:22 54.59586 -2.83930 32146 ft 490 kts 330°
2026-05-07 18:23 54.62562 -2.86800 31359 ft 490 kts 330°
2026-05-07 18:23 54.65538 -2.89675 30553 ft 492 kts 330°
2026-05-07 18:23 54.68529 -2.92569 29727 ft 492 kts 330°
2026-05-07 18:23 54.71510 -2.95460 28903 ft 491 kts 330°
2026-05-07 18:24 54.74484 -2.98348 28095 ft 489 kts 330°
2026-05-07 18:24 54.77445 -3.01228 27292 ft 487 kts 330°
2026-05-07 18:24 54.80390 -3.04098 26518 ft 485 kts 330°
2026-05-07 18:24 54.83305 -3.06942 26072 ft 475 kts 330°
2026-05-07 18:25 54.86139 -3.09714 25613 ft 464 kts 330°
2026-05-07 18:25 54.88940 -3.12460 24960 ft 460 kts 330°
2026-05-07 18:25 54.91718 -3.15186 24304 ft 457 kts 330°
2026-05-07 18:25 54.94468 -3.17889 23696 ft 452 kts 330°
2026-05-07 18:26 54.97198 -3.20577 23069 ft 448 kts 330°
2026-05-07 18:26 54.99902 -3.23242 22452 ft 445 kts 330°
2026-05-07 18:26 55.02579 -3.25887 21829 ft 441 kts 330°
2026-05-07 18:26 55.05236 -3.28514 21231 ft 437 kts 330°
2026-05-07 18:27 55.07868 -3.31119 20621 ft 433 kts 330°
2026-05-07 18:27 55.10472 -3.33702 20103 ft 427 kts 330°
2026-05-07 18:27 55.13022 -3.36234 20008 ft 422 kts 330°
2026-05-07 18:27 55.15573 -3.38771 20006 ft 421 kts 330°
2026-05-07 18:28 55.18121 -3.41309 19558 ft 420 kts 330°
2026-05-07 18:28 55.20657 -3.43839 19000 ft 417 kts 330°
2026-05-07 18:28 55.23149 -3.46329 18683 ft 407 kts 330°
2026-05-07 18:28 55.25573 -3.48754 18531 ft 395 kts 330°
2026-05-07 18:29 55.27937 -3.51123 18172 ft 390 kts 330°
2026-05-07 18:29 55.30286 -3.53480 17647 ft 388 kts 330°
2026-05-07 18:29 55.32621 -3.55826 17150 ft 386 kts 330°
2026-05-07 18:29 55.34949 -3.58168 16513 ft 387 kts 330°
2026-05-07 18:30 55.37289 -3.60525 15890 ft 387 kts 330°
2026-05-07 18:30 55.39624 -3.62881 15272 ft 387 kts 330°
2026-05-07 18:30 55.41956 -3.65237 14654 ft 386 kts 330°
2026-05-07 18:30 55.44285 -3.67593 14035 ft 385 kts 330°
2026-05-07 18:31 55.46582 -3.69919 13380 ft 373 kts 330°
2026-05-07 18:31 55.48775 -3.72143 12698 ft 355 kts 330°
2026-05-07 18:31 55.50862 -3.74263 12092 ft 338 kts 329°
2026-05-07 18:31 55.52852 -3.76287 11547 ft 323 kts 329°
2026-05-07 18:32 55.54759 -3.78228 11007 ft 310 kts 329°
2026-05-07 18:32 55.56597 -3.80101 10473 ft 300 kts 329°
2026-05-07 18:32 55.58379 -3.81920 9933 ft 292 kts 329°
2026-05-07 18:32 55.60125 -3.83703 9452 ft 291 kts 329°
2026-05-07 18:33 55.61899 -3.85518 8988 ft 298 kts 329°
2026-05-07 18:33 55.63708 -3.87369 8514 ft 303 kts 329°
2026-05-07 18:33 55.65545 -3.89250 8137 ft 305 kts 329°
2026-05-07 18:33 55.67349 -3.91101 7822 ft 299 kts 329°
2026-05-07 18:34 55.69089 -3.92887 7487 ft 281 kts 329°
2026-05-07 18:34 55.70865 -3.94356 7135 ft 277 kts 342°
2026-05-07 18:34 55.72693 -3.95174 6823 ft 274 kts 347°
2026-05-07 18:34 55.74553 -3.95835 6498 ft 272 kts 348°
2026-05-07 18:35 55.76404 -3.96456 6177 ft 270 kts 349°
2026-05-07 18:35 55.78249 -3.97066 5847 ft 269 kts 349°
2026-05-07 18:35 55.80084 -3.97672 5522 ft 268 kts 349°
2026-05-07 18:35 55.81912 -3.98275 5200 ft 267 kts 349°
2026-05-07 18:36 55.83730 -3.98876 4975 ft 267 kts 349°
2026-05-07 18:36 55.85546 -3.99476 4849 ft 265 kts 349°
2026-05-07 18:36 55.87346 -4.00071 4692 ft 257 kts 349°
2026-05-07 18:36 55.89046 -4.00633 4523 ft 241 kts 349°
2026-05-07 18:37 55.90672 -4.01169 4389 ft 235 kts 349°
2026-05-07 18:37 55.92270 -4.01697 4245 ft 232 kts 349°
2026-05-07 18:37 55.93856 -4.02220 4102 ft 231 kts 349°
2026-05-07 18:37 55.95436 -4.02742 3960 ft 231 kts 349°
2026-05-07 18:38 55.97000 -4.03355 3780 ft 231 kts 338°
2026-05-07 18:38 55.98331 -4.04906 3628 ft 225 kts 321°
2026-05-07 18:38 55.99461 -4.06668 3556 ft 210 kts 310°
2026-05-07 18:38 56.00021 -4.09020 3547 ft 200 kts 279°
2026-05-07 18:39 56.00186 -4.11466 3556 ft 197 kts 275°
2026-05-07 18:39 56.00251 -4.13890 3555 ft 196 kts 270°
2026-05-07 18:39 56.00234 -4.16312 3558 ft 195 kts 269°
2026-05-07 18:39 56.00121 -4.18725 3513 ft 197 kts 252°
2026-05-07 18:40 55.99348 -4.20668 3265 ft 193 kts 222°
2026-05-07 18:40 55.98410 -4.22319 3013 ft 184 kts 226°
2026-05-07 18:40 55.97527 -4.23956 2779 ft 183 kts 227°
2026-05-07 18:40 55.96673 -4.25557 2519 ft 171 kts 227°
2026-05-07 18:41 55.95891 -4.27018 2283 ft 155 kts 227°
2026-05-07 18:41 55.95170 -4.28368 2075 ft 147 kts 227°
2026-05-07 18:41 55.94472 -4.29676 1878 ft 145 kts 227°
2026-05-07 18:41 55.93785 -4.30977 1705 ft 144 kts 226°
2026-05-07 18:42 55.93098 -4.32265 1518 ft 143 kts 227°
2026-05-07 18:42 55.92410 -4.33552 1334 ft 143 kts 227°
2026-05-07 18:42 55.91724 -4.34835 1148 ft 143 kts 227°
2026-05-07 18:42 55.91043 -4.36122 957 ft 142 kts 226°
2026-05-07 18:43 55.90360 -4.37400 774 ft 142 kts 227°
2026-05-07 18:43 55.89677 -4.38672 567 ft 141 kts 227°
2026-05-07 18:43 55.89003 -4.39939 398 ft 141 kts 227°
2026-05-07 18:43 55.88325 -4.41205 218 ft 142 kts 226°
2026-05-07 18:44 55.87650 -4.42457 42 ft 136 kts 226°
2026-05-07 18:44 55.87086 -4.43533 44 ft 97 kts 226°
2026-05-07 18:44 55.86733 -4.44194 43 ft 58 kts 227°
2026-05-07 18:44 55.86510 -4.44493 45 ft 22 kts 195°
2026-05-07 18:45 55.86393 -4.44537 42 ft 6 kts 156°
2026-05-07 18:45 55.86380 -4.44503 42 ft 2 kts 96°
2026-05-07 18:45 55.86383 -4.44478 42 ft 2 kts 72°
2026-05-07 18:45 55.86422 -4.44332 42 ft 22 kts 51°
2026-05-07 18:46 55.86495 -4.44199 43 ft 22 kts 44°
2026-05-07 18:46 55.86584 -4.44040 39 ft 13 kts 45°
2026-05-07 18:46 55.86588 -4.44032 39 ft 0 kts 46°
2026-05-07 18:46 55.86592 -4.44012 39 ft 2 kts 93°
2026-05-07 18:47 55.86581 -4.43990 40 ft 4 kts 159°
2026-05-07 18:47 55.86537 -4.43995 40 ft 10 kts 180°
2026-05-07 18:47 55.86486 -4.43967 41 ft 7 kts 153°
2026-05-07 18:47 55.86445 -4.43929 41 ft 4 kts 149°
2026-05-07 18:48 55.86431 -4.43890 41 ft 7 kts 101°
2026-05-07 18:48 55.86435 -4.43834 40 ft 2 kts 63°
2026-05-07 18:48 55.86443 -4.43807 41 ft 2 kts 63°
2026-05-07 18:48 55.86454 -4.43771 41 ft 0 kts 62°